User: anonymous   Login
Location: Newark
(43.0000°N, 1.6781°W)
Time: 08:26:45
(UTC+00:00)
Language:

PicSat - Orbit

View from above orbital plane
View from above orbital plane
View from above satellite
View from above satellite

Ground track
Ground track

The orbit data is extracted from the following two-line orbital elements,

1 43131U 18004W   21128.74544364  .00002180  00000-0  84651-4 0  9995
2 43131  97.4126 204.9243 0007929 355.1756   4.9405 15.27147595184704
Epoch (UTC): 08 May 2021 17:53:26
Eccentricity: 0.0007929
inclination: 97.4126°
perigee height: 479 km
apogee height: 490 km
right ascension of ascending node: 204.9243°
argument of perigee: 355.1756°
revolutions per day: 15.27147595
mean anomaly at epoch: 4.9405°
orbit number at epoch: 18470

The dashed part of the orbit path shows where the satellite is in the earth's shadow,  

DLR